Location: Windsor
(43.2292°N, 89.3015°W)
Time: 16:38:16
(UTC+00:00)

AO-7 - Pass Details

Date: 02 July 2022
Orbit: 1440 x 1458 km, 101.9° (Epoch: 09 August)

Event Time Altitude Azimuth Distance (km) Brightness Sun altitude
Rises 08:29:12 0° 35° (NE) 4,560 ? -15.5°
Reaches altitude 10° 08:34:22 10° 62° (ENE) 3,579 ? -15.0°
Maximum altitude 08:37:44 13° 87° (E) 3,360 ? -14.6°
Drops below altitude 10° 08:41:06 10° 111° (ESE) 3,576 ? -14.2°
Sets 08:46:10 0° 138° (SE) 4,551 ? -13.7°
